Starlink 11670

operational
NORAD ID: 64237 Int'l Des: 2025-119 Owner: SPXS Country: US Constellation: starlink
LEOCIRCULAR

Starlink 11670について

説明を読み込み中...

リアルタイム位置

3D地球を読み込み中...

次回通過

高度履歴

Altitude vs Time

uPlot chart will show altitude changes over time

軌道要素

1 64237U 25119E 25260.18475812 .00117405 00000-0 90496-3 0 9990
2 64237 42.9990 175.2363 0001304 255.6084 104.4639 15.70856642 17955
Epoch: Sep 17, 2025 • Age: 46 hours

現在のステータス

高度 354.7 km
速度 7.70 km/s
衛星直下点 18.07°N, 151°E
打ち上げ日 Jun 3, 2025
運用期間 0.2 years
タイプ internet

技術仕様

分類 Payload
質量 960.00 kg
乾燥質量 910.00 kg
総質量 960.00 kg
長さ 0.30 m
直径 4.10 m
スパン 29.00 m
形状 Box + pan
製造者 SPXS
バスタイプ Starlink V2MD
フェーズステータス In Orbit
所有者/国 SPXS/US

大規模コンステレーション

Loading constellations...